User: anonymous   Login
Location: *
(45.0500°N, 12.0500°E)
Time: 23:19:11
(UTC+00:00)
Language:

Cosmos 1461 - Orbit

View from above orbital plane
View from above orbital plane
View from above satellite
View from above satellite

Ground track
Ground track

The orbit data is extracted from the following two-line orbital elements,

1 14064U 83044A   21210.54273386  .00000804  00000-0  80783-4 0  9990
2 14064  65.0015 307.3607 0098208 180.0752 180.0368 14.95280757947947
Epoch (UTC): 29 July 2021 13:01:32
Eccentricity: 0.0098208
inclination: 65.0015°
perigee height: 513 km
apogee height: 650 km
right ascension of ascending node: 307.3607°
argument of perigee: 180.0752°
revolutions per day: 14.95280757
mean anomaly at epoch: 180.0368°
orbit number at epoch: 94794

The dashed part of the orbit path shows where the satellite is in the earth's shadow,  

DLR